Regional Weather Roundup
Issued by NWS San Angelo, TX

Home | Current Version | Previous Version | Text Only | Print | Product List | Glossary On
Versions: 1 2 3 4 5 6 7 8 9 10 11 12 13 14 15 16 17 18 19 20 21 22 23 24 25 26 27 28 29 30 31 32 33 34 35 36 37 38 39 40 41 42 43 44 45 46 47 48 49 50
000
ASUS44 KSJT 241211
RWRSJT
WEST CENTRAL TEXAS REGIONAL WEATHER ROUNDUP
NATIONAL WEATHER SERVICE SAN ANGELO TX
700 AM CDT TUE MAY 24 2016

NOTE: "FAIR" INDICATES FEW OR NO CLOUDS BELOW 12,000 FEET WITH NO
SIGNIFICANT WEATHER AND/OR OBSTRUCTIONS TO VISIBILITY.

TXZ049-054-064>066-071>073-076>078-098-099-113-114-127-128-139-140-
154-155-168>170-241300
...LOCATIONS ACROSS WEST CENTRAL TEXAS...

CITY           SKY/WX    TMP DP  RH WIND       PRES   REMARKS
SAN ANGELO     CLOUDY    74  69  85 S5        29.87R
ABILENE        MOCLDY    73  70  90 SE9       29.89R
DYESS AFB      MOCLDY    73  64  73 SE12      29.87R
JUNCTION       CLOUDY    73  68  84 S7        29.90R
SWEETWATER     CLEAR     72  71  96 S9        29.90S
BROWNWOOD      CLOUDY    73  72  94 SE6       29.91R
COLEMAN        CLOUDY    73  69  86 SE7       29.91R
SONORA         MOCLDY    73  68  83 S12       29.94R
OZONA          FAIR      72  68  88 S12G17    29.91R
BRADY          NOT AVBL
$$

TEXAS PANHANDLE/OKLAHOMA PANHANDLE

CITY           SKY/WX    TMP DP  RH WIND       PRES   REMARKS
AMARILLO       CLEAR     65  63  93 S15       29.88R FOG
BORGER         CLEAR     70  65  84 S16G29    29.83R
CANADIAN       PTCLDY    70  69  94 S15G26    29.81S
DALHART        CLEAR     59  57  93 S9        29.85R FOG
DUMAS          SUNNY     62  60  92 S15       29.83S FOG
GUYMON         NOT AVBL
HEREFORD       SUNNY     63  60  90 SW8       29.90R
PAMPA          SUNNY     69  67  93 S17G23    29.87R FOG
PERRYTON       CLEAR     70  67  89 S16G24    29.82R
$$

SOUTHERN PANHANDLE/SOUTH PLAINS/ROLLING PLAINS

CITY           SKY/WX    TMP DP  RH WIND       PRES   REMARKS
LUBBOCK        MOCLDY    70  66  87 SW13      29.89R FOG
SNYDER           N/A     71  69  95 S7        29.88S
CHILDRESS      MOCLDY    73  70  90 S14       29.86R
SEMINOLE       SUNNY     68  66  92 S7        29.91R
$$

PERMIAN BASIN

CITY           SKY/WX    TMP DP  RH WIND       PRES   REMARKS
MIDLAND        MOCLDY    74  67  78 S15       29.87F HAZE
ODESSA         PTCLDY    73  66  78 S12       29.88F HAZE
WINK           CLEAR     70  65  84 MISG      29.85R
$$

FAR WEST/SOUTHWEST MOUNTAINS/TRANS PECOS

CITY           SKY/WX    TMP DP  RH WIND       PRES   REMARKS
ALPINE         PTSUNNY   60  51  73 CALM      30.04R
DRYDEN         NOT AVBL
EL PASO        CLEAR     69  20  15 S3        29.95R
FORT STOCKTON  CLEAR     68  64  87 S10       29.88R
GUADALUPE PASS NOT AVBL
MARFA          CLOUDY    48  46  93 E5        30.04R
PECOS          SUNNY     59  56  89 W6        29.86R
$$

DALLAS/FORT WORTH METROPLEX

CITY           SKY/WX    TMP DP  RH WIND       PRES   REMARKS
DFW AIRPORT    CLOUDY    75  69  81 S5        29.92R
FTW MEACHAM    CLOUDY    75  70  84 S6        29.92R
DAL-EXECUTIVE  CLOUDY    73  69  87 SE6       29.91R
GRAND PRAIRIE  CLOUDY    73  70  88 S5        29.92S
ADDISON        CLOUDY    73  72  94 S7        29.93R
MESQUITE       CLOUDY    70  70 100 SE5       29.93R
LANCASTER      PTSUNNY   71  67  88 S3        29.92S
$$

NORTH CENTRAL TEXAS

CITY           SKY/WX    TMP DP  RH WIND       PRES   REMARKS
SHRMAN/DENISON RAIN      64  60  86 NW8       29.98R
GAINESVILLE    CLOUDY    66  63  91 SE7       29.96F
BRIDGEPORT     NOT AVBL
DENTON         CLOUDY    73  70  90 NW3       29.94R
WAXAHACHIE     CLOUDY    72  72 100 SE6       29.92S
GRANBURY       CLOUDY    75  70  85 CALM      29.93R
$$

WESTERN NORTH TEXAS

CITY           SKY/WX    TMP DP  RH WIND       PRES   REMARKS
WICHITA FALLS  PTCLDY    66  64  93 SE8       29.88R
VERNON         SUNNY     69  65  85 S9        29.87R
BRECKENRIDGE   CLOUDY    75  69  82 SE7       29.91R HAZE
COMANCHE       CLOUDY    73  73 100 SE6       29.92R
$$

CENTRAL AND SOUTH CENTRAL TEXAS

CITY           SKY/WX    TMP DP  RH WIND       PRES   REMARKS
AUSTIN/BERGSTM MOCLDY    75  72  90 S5        29.91R
WACO           CLOUDY    74  70  87 S12       29.91R
HILLSBORO      CLOUDY    72  70  94 SE10      29.92R
TEMPLE         PTCLDY    73  72  94 SE8       29.92R
KILLEEN-GRAY   PTCLDY    72  71  96 SE8       29.91R
FORT HOOD      MOCLDY    72  72 100 S8        29.90R
GEORGETOWN     MOCLDY    73  70  88 SE9       29.90R
LAGO VISTA     CLOUDY    73  71  92 SE6       29.93R
SAN MARCOS     MOCLDY    73  73 100 SE8       29.91R FOG
NEW BRAUNFELS  CLOUDY    75  72  90 S3        29.90R FOG
RANDOLPH AFB   MOCLDY    74  74 100 S6        29.90R
SAN ANTONIO    CLOUDY    75  72  90 S9        29.90R
STINSON        CLOUDY    77  73  87 S3        29.88R
PLEASANTON     NOT AVBL
LA GRANGE        N/A     77  75  93 SE6       29.88R
GIDDINGS       CLOUDY    74  72  93 SE6       29.93R
$$

EAST TEXAS

CITY           SKY/WX    TMP DP  RH WIND       PRES   REMARKS
PARIS          CLOUDY    70  61  73 S7        29.95R
CLARKSVILLE    NOT AVBL
TYLER          CLOUDY    72  68  87 S7        29.95R
LONGVIEW       CLEAR     69  68  96 S7        29.96R
PALESTINE      CLOUDY    70  70  99 CALM      29.95R
NACOGDOCHES    MOCLDY    68  66  94 SE6       29.96R
$$

TEXAS HILL COUNTRY AND EDWARDS PLATEAU

CITY           SKY/WX    TMP DP  RH WIND       PRES   REMARKS
LLANO          MOSUNNY   73  70  88 S6        29.94R
HORSESHOE BAY  FAIR      72  69  90 S6        29.92R
KERRVILLE      CLOUDY    72  69  93 S10       29.93S
FREDERICKSBRG  CLOUDY    70  67  89 S5        29.94R
ROCKSPRINGS    CLOUDY    72  68  88 SE15      29.94R FOG
HONDO          CLOUDY    74  73  97 SE8       29.91S
UVALDE         CLOUDY    74  72  93 SE9       29.88R
DEL RIO        CLOUDY    74  65  73 SE9       29.83R
$$

SOUTHEAST TEXAS

CITY           SKY/WX    TMP DP  RH WIND       PRES   REMARKS
COLLEGE STN    CLOUDY    72  71  97 E7        29.91R
CALDWELL       CLOUDY    73  73 100 E6        29.93S FOG
CROCKETT       CLOUDY    72  70  94 SE3       29.97R
BRENHAM        CLOUDY    76  74  96 SE6       29.91S
HUNTSVILLE     MOCLDY    74  71  91 VRB3      29.92S
CONROE         MOCLDY    72  71  97 SE8       29.93R
HOUSTON BUSH   MOCLDY    74  73  97 SE5       29.92R
HOUSTON HOBBY  MOCLDY    76  73  91 SE8       29.92R
PERLAND        CLEAR     77  74  90 SE9       29.93R
WHARTON        CLOUDY    75  74  96 SE8       29.90R FOG
$$

THE UPPER TEXAS COAST

CITY           SKY/WX    TMP DP  RH WIND       PRES   REMARKS
ORANGE         CLOUDY    75  72  88 S5        29.98R
PORT ARTHUR    CLOUDY    76  72  87 S8        29.95R
GALVESTON      PTCLDY    77  75  93 SE15      29.93S
ANGLETON       CLOUDY    78  75  90 SE10      29.90S
BAY CITY       NOT AVBL
$$

TEXAS COASTAL BEND, RIO GRANDE PLAINS DEEP SOUTH TEXAS

CITY           SKY/WX    TMP DP  RH WIND       PRES   REMARKS
VICTORIA       PTCLDY    76  74  93 SE9       29.88R FOG
BEEVILLE       CLOUDY    70  70 100 SE8       29.88R FOG
ROCKPORT       MOCLDY    80  76  87 SE13      29.86R
PORT ARANSAS   CLOUDY    79  78  96 SE14      29.87R
PORT LAVACA    PTSUNNY   77  76  98 SE9       29.89R FOG
CORPUS CHRISTI CLOUDY    80  76  87 SE12      29.86R
KINGSVILLE NAS MOCLDY    79  79 100 SE8       29.85R
COTULLA        CLOUDY    77  74  90 E6        29.87R
LAREDO         CLOUDY    77  74  90 E7        29.85S
BROWNSVILLE    PTCLDY    79  78  97 SE9       29.85R FOG
PORT ISABEL    PTCLDY    81  78  91 SE12      29.85R FOG
HEBBRONVILLE   CLOUDY    77  74  91 SE8       29.87R FOG
MCALLEN        CLOUDY    80  77  90 SE13      29.82R FOG
WESLACO        FOG       79  76  90 SE8       29.82R VSB 1/2
FALFURRIAS     MOSUNNY   78  75  90 SE5       29.84R
EDINBURG       SUNNY     80  76  89 SE6       29.83R FOG
$$



USA.gov is the U.S. government's official web portal to all federal, state and local government web resources and services.